Orbital Elements at Epoch 2459000.5 (2020-May-31.0) TDB
Reference: JPL 20 (heliocentric ecliptic J2000)
Element | Value | Uncertainty (1-sigma) | Units |
e | .03932410519942114 | 6.0492e-08 | |
a | 3.192393737742547 | 5.2547e-08 | au |
q | 3.066855710561585 | 2.205e-07 | au |
i | 13.94776470176565 | 5.5206e-06 | deg |
node | 132.4519416946232 | 2.6016e-05 | deg |
peri | .7566550051446497 | 9.4103e-05 | deg |
M | 204.5721873234504 | 9.4023e-05 | deg |
tp | 2459899.996207695476 (2022-Nov-16.49620770) | 0.00055006 | TDB |
period | 2083.402122143019 5.70 | 5.144e-05 1.408e-07 | d yr |
n | .1727942945693549 | 4.2663e-09 | deg/d |
Q | 3.317931764923508 | 5.4614e-08 | au |
|
| | Orbit Determination Parameters
Additional Information
|